Regional Weather Roundup
Issued by NWS

Home | Current Version | Previous Version | Graphics & Text | Print | Product List | Glossary On
Versions: 1 2 3 4 5 6 7 8 9 10 11 12 13 14 15 16 17 18 19 20 21 22 23 24 25 26 27 28 29 30 31 32 33 34 35 36 37 38 39 40 41 42 43 44 45 46 47 48 49 50
000
ASUS43 KTOP 260408
RWRKS

WEATHER ROUNDUP FOR KANSAS
NATIONAL WEATHER SERVICE GOODLAND KS
1000 PM CST SAT FEB 25 2017

NOTE:  "FAIR" INDICATES FEW OR NO CLOUDS BELOW 12,000 FEET WITH NO
SIGNIFICANT WEATHER AND/OR OBSTRUCTIONS TO VISIBILITY.

KSZ001>006-013>018-027>032-041>047-260500-
NORTHWEST KANSAS

CITY           SKY/WX    TMP DP  RH WIND       PRES   REMARKS
GOODLAND       CLOUDY    19  10  68 N3        29.85R
HAYS           PTCLDY    37  14  38 S13       29.92F WCI  29
HILL CITY      MOCLDY    29  11  47 N5        29.91R
RUSSELL        PTCLDY    33  13  43 W5        29.91R
$$

KSZ061>065-074>080-084>089-260500-
SOUTHWEST KANSAS

CITY           SKY/WX    TMP DP  RH WIND       PRES   REMARKS
DODGE CITY     CLOUDY    34  14  43 SE12      29.88S WCI  25
ELKHART          N/A     32   7  35 SE12        N/A  WCI  23
GARDEN CITY    PTCLDY    34  15  46 SE8       29.84S
GREAT BEND     PTCLDY    33  14  45 S13       29.93S WCI  24
LIBERAL        MOCLDY    37  14  38 SE12      29.84R WCI  30
PRATT          CLEAR     32  14  47 S14       29.95R WCI  22
$$

KSZ066>073-081>083-090>101-260500-
SOUTHEAST KANSAS

CITY           SKY/WX    TMP DP  RH WIND       PRES   REMARKS
CHANUTE        CLEAR     28  14  55 S6        30.07F
COFFEYVILLE    CLEAR     33  14  45 SE3       30.09S
HUTCHINSON     CLEAR     33  18  53 SE9       29.97F
MEDICINE LODGE   N/A     33  18  53 S8        29.96R
NEWTON         CLEAR     32  19  58 S12       29.99F WCI  23
PARSONS        CLEAR     30  13  49 CALM      30.09F
WICHITA INTL   CLEAR     31  19  61 SE8       29.99F
WICHITA JABRA  CLEAR     31  18  58 SE7       30.00F
WICHITA MCCONL CLEAR     34  17  50 SE9       29.99F
WINFIELD       CLEAR     34  18  52 SE6       30.02F
$$

KSZ007>012-019>026-033>040-048>060-102>105-260500-
NORTHEAST KANSAS

CITY           SKY/WX    TMP DP  RH WIND       PRES   REMARKS
CONCORDIA      CLEAR     34  16  47 S16       29.93R WCI  24
EMPORIA        CLEAR     31  16  54 S12       30.01F WCI  22
LAWRENCE       CLEAR     34  13  41 SE7       30.03S
MANHATTAN      CLEAR     36  18  48 SW13      29.97F WCI  27
MARYSVILLE     MOCLDY    34  19  55 S10       29.95S WCI  26
OLATHE IND     MOCLDY    32  14  47 S12       30.04F WCI  23
OLATHE EXE     MOCLDY    33  13  43 S9        30.03F
SALINA         CLEAR     34  16  47 S8        29.95F
TOPEKA BILLARD CLEAR     36  13  38 S5        30.01F
TOPEKA FORBES  CLEAR     34  13  41 S8        30.00F
$$



USA.gov is the U.S. government's official web portal to all federal, state and local government web resources and services.